sat.trackr.live / text

‹ back to catalog

CUBEL

NORAD 47448 · 2021-006AM

PAYLOAD ACTIVE UNKNOWN

§ Identity

Operator
Country
GER
Launch date
2021-01-24
Launch site
AFETR
Launch vehicle
Mass (kg)
RCS (m²)

External: N2YO · Heavens-Above · Gunter

§ Orbital elements

Epoch: 2026-05-25T02:35:16.748736Z

Period
93.47 min
Inclination
97.2352°
Eccentricity
0.0004955
Mean motion
15.40588361 rev/d
Perigee alt
441.0 km
Apogee alt
447.8 km
Semi-major
6,822.5 km
B*
1.9594e-4
RAAN
195.9196°
Arg perigee
247.9505°
Mean anomaly
112.1216°
Rev number
29,620

§ Raw data

CUBEL1 47448U 21006AM  26145.10783274  .00007890  00000+0  19594-3 0  99902 47448  97.2352 195.9196 0004955 247.9505 112.1216 15.40588361296206

JSON: /api/v1/satellites/47448 · /tle

For live sub-satellite position, see the globe view (requires WebGL).

§ Visibility from observer

Set your observer location to see the next 7 days of passes ≥ 10°. The values pass through the URL so the page stays shareable.

No JS? Fill the form by hand. The geolocation button needs JavaScript.

§ Radio — SatNOGS DB

ModeDescriptionDownlinkUplink
FM DATAS 2.263 GHz
MSK AX.100 Mode 5 UHFD 400.575 MHz

2 transmitters · refreshed weekly from db.satnogs.org